Location: *
(58.4167°N, 22.5000°E)
Time: 12:51:25
(UTC+00:00)

CZ-4C R/B - Pass Details

Date: 22 September 2019
Orbit: 653 x 1349 km, 63.4° (Epoch: 19 October)

Event Time Altitude Azimuth Distance (km) Brightness Sun altitude
Rises 17:23:16 0° 272° (W) 3,374 7.4 -7.7°
Reaches altitude 10° 17:25:36 10° 276° (W) 2,531 6.4 -8.0°
Maximum altitude 17:31:27 57° 355° (N) 1,166 3.1 -8.7°
Drops below altitude 10° 17:38:29 10° 74° (ENE) 3,028 4.6 -9.6°
Enters shadow 17:39:31 - 76° (ENE) 3,389 4.8 -9.7°
